TimePDT,TemperatureF,Dew PointF,Humidity,Sea Level PressureIn,VisibilityMPH,Wind Direction,Wind SpeedMPH,Gust SpeedMPH,PrecipitationIn,Events,Conditions,WindDirDegrees,DateUTC
12:53 AM,55.9,48.0,75,29.98,10.0,Calm,Calm,-,N/A,,Clear,0,2012-10-07 07:53:00
1:53 AM,55.0,48.0,77,29.98,10.0,Calm,Calm,-,N/A,,Clear,0,2012-10-07 08:53:00
2:53 AM,54.0,48.0,80,29.99,10.0,Calm,Calm,-,N/A,,Clear,0,2012-10-07 09:53:00
3:53 AM,53.1,48.0,83,29.98,10.0,Calm,Calm,-,N/A,,Clear,0,2012-10-07 10:53:00
4:53 AM,52.0,46.9,83,29.98,10.0,Calm,Calm,-,N/A,,Clear,0,2012-10-07 11:53:00
5:53 AM,52.0,46.9,83,29.98,10.0,Calm,Calm,-,N/A,,Clear,0,2012-10-07 12:53:00
6:53 AM,51.1,48.0,89,29.99,10.0,Calm,Calm,-,N/A,,Clear,0,2012-10-07 13:53:00
7:53 AM,52.0,46.9,83,30.01,10.0,Calm,Calm,-,N/A,,Clear,0,2012-10-07 14:53:00
8:53 AM,55.9,50.0,80,30.02,10.0,Calm,Calm,-,N/A,,Clear,0,2012-10-07 15:53:00
9:53 AM,61.0,51.1,70,30.01,10.0,West,4.6,-,N/A,,Clear,260,2012-10-07 16:53:00
10:53 AM,64.9,51.1,61,29.99,10.0,Calm,Calm,-,N/A,,Clear,0,2012-10-07 17:53:00
11:53 AM,70.0,51.1,51,29.97,10.0,WSW,8.1,-,N/A,,Clear,250,2012-10-07 18:53:00
12:53 PM,72.0,51.1,48,29.96,10.0,West,5.8,-,N/A,,Clear,260,2012-10-07 19:53:00
1:53 PM,75.0,48.0,38,29.94,10.0,WNW,12.7,16.1,N/A,,Clear,300,2012-10-07 20:53:00
2:53 PM,73.9,44.1,34,29.93,10.0,WSW,9.2,-,N/A,,Clear,250,2012-10-07 21:53:00
3:53 PM,75.0,45.0,34,29.92,10.0,West,13.8,-,N/A,,Clear,270,2012-10-07 22:53:00
4:53 PM,72.0,48.9,44,29.92,10.0,West,15.0,-,N/A,,Clear,270,2012-10-07 23:53:00
5:53 PM,66.9,48.9,52,29.93,10.0,West,12.7,-,N/A,,Clear,270,2012-10-08 00:53:00
6:53 PM,63.0,50.0,63,29.95,10.0,West,13.8,-,N/A,,Clear,260,2012-10-08 01:53:00
7:53 PM,61.0,50.0,67,29.96,10.0,WNW,10.4,-,N/A,,Clear,290,2012-10-08 02:53:00
8:53 PM,59.0,48.9,69,29.98,10.0,Calm,Calm,-,N/A,,Clear,0,2012-10-08 03:53:00
9:53 PM,57.9,48.9,72,29.99,10.0,Calm,Calm,-,N/A,,Clear,0,2012-10-08 04:53:00
10:53 PM,55.9,48.9,77,29.99,10.0,West,4.6,-,N/A,,Clear,260,2012-10-08 05:53:00
11:53 PM,57.0,50.0,77,30.00,10.0,WSW,6.9,-,N/A,,Clear,240,2012-10-08 06:53:00